TimeCDT,TemperatureF,Dew PointF,Humidity,Sea Level PressureIn,VisibilityMPH,Wind Direction,Wind SpeedMPH,Gust SpeedMPH,PrecipitationIn,Events,Conditions,WindDirDegrees,DateUTC
12:15 AM,54.5,41.2,61,30.19,10.0,North,6.9,-,N/A,,Clear,10,2013-10-27 05:15:00
12:35 AM,53.6,41.0,62,30.19,10.0,North,4.6,-,N/A,,Clear,350,2013-10-27 05:35:00
12:55 AM,52.7,40.1,62,30.19,10.0,North,6.9,-,N/A,,Clear,350,2013-10-27 05:55:00
1:15 AM,51.8,40.3,65,30.18,10.0,NNW,10.4,-,N/A,,Clear,330,2013-10-27 06:15:00
1:35 AM,51.8,40.1,64,30.18,10.0,WNW,5.8,-,N/A,,Scattered Clouds,300,2013-10-27 06:35:00
1:55 AM,50.7,39.7,66,30.18,10.0,WNW,5.8,-,N/A,,Clear,300,2013-10-27 06:55:00
2:15 AM,50.2,39.2,66,30.18,10.0,NNW,8.1,-,N/A,,Clear,330,2013-10-27 07:15:00
2:35 AM,48.7,39.2,70,30.18,10.0,NNW,8.1,-,N/A,,Clear,340,2013-10-27 07:35:00
2:55 AM,48.4,38.5,69,30.18,10.0,NNW,5.8,-,N/A,,Clear,340,2013-10-27 07:55:00
3:15 AM,47.5,38.5,71,30.18,10.0,NNW,6.9,-,N/A,,Clear,340,2013-10-27 08:15:00
3:35 AM,46.4,38.3,73,30.17,10.0,NNW,9.2,-,N/A,,Clear,330,2013-10-27 08:35:00
3:55 AM,46.2,38.3,74,30.17,10.0,NNW,9.2,-,N/A,,Clear,340,2013-10-27 08:55:00
4:15 AM,45.1,38.3,77,30.17,10.0,NNW,5.8,-,N/A,,Clear,330,2013-10-27 09:15:00
4:35 AM,44.4,37.8,77,30.17,10.0,NNW,4.6,-,N/A,,Clear,340,2013-10-27 09:35:00
4:55 AM,44.1,37.6,78,30.16,10.0,North,6.9,-,N/A,,Clear,350,2013-10-27 09:55:00
5:15 AM,44.6,37.4,76,30.16,10.0,North,10.4,-,N/A,,Clear,350,2013-10-27 10:15:00
5:35 AM,45.1,37.0,73,30.16,10.0,NNW,6.9,-,N/A,,Clear,340,2013-10-27 10:35:00
5:55 AM,43.5,36.5,76,30.16,10.0,NNW,6.9,-,N/A,,Clear,330,2013-10-27 10:55:00
6:15 AM,42.8,36.0,77,30.16,10.0,Calm,Calm,-,N/A,,Clear,0,2013-10-27 11:15:00
6:35 AM,43.5,35.4,73,30.16,10.0,Calm,Calm,-,N/A,,Clear,0,2013-10-27 11:35:00
6:55 AM,41.7,35.6,79,30.17,10.0,NNW,5.8,-,N/A,,Clear,330,2013-10-27 11:55:00
7:15 AM,41.7,35.6,79,30.16,10.0,North,4.6,-,N/A,,Clear,360,2013-10-27 12:15:00
7:35 AM,41.4,35.1,78,30.16,10.0,North,4.6,-,N/A,,Clear,360,2013-10-27 12:35:00
7:55 AM,40.1,34.7,81,30.16,4.0,North,8.1,-,N/A,,Haze,360,2013-10-27 12:55:00
8:15 AM,40.5,34.7,80,30.16,10.0,North,5.8,-,N/A,,Clear,350,2013-10-27 13:15:00
8:35 AM,41.0,35.2,80,30.16,10.0,NNW,8.1,-,N/A,,Clear,340,2013-10-27 13:35:00
8:55 AM,42.8,35.6,76,30.17,10.0,NNW,4.6,-,N/A,,Clear,330,2013-10-27 13:55:00
9:15 AM,45.3,36.0,70,30.17,10.0,North,5.8,-,N/A,,Clear,350,2013-10-27 14:15:00
9:35 AM,47.8,35.6,63,30.17,10.0,NNW,6.9,-,N/A,,Clear,340,2013-10-27 14:35:00
9:55 AM,50.2,35.4,57,30.18,10.0,NW,5.8,-,N/A,,Clear,320,2013-10-27 14:55:00
10:15 AM,52.3,35.2,52,30.18,10.0,NNW,3.5,-,N/A,,Clear,330,2013-10-27 15:15:00
10:35 AM,54.3,34.9,48,30.18,10.0,Calm,Calm,-,N/A,,Clear,0,2013-10-27 15:35:00
10:55 AM,55.9,34.3,44,30.18,10.0,Calm,Calm,-,N/A,,Clear,0,2013-10-27 15:55:00
11:15 AM,58.3,34.0,40,30.17,10.0,Calm,Calm,-,N/A,,Clear,0,2013-10-27 16:15:00
11:35 AM,59.7,32.9,36,30.17,10.0,Calm,Calm,-,N/A,,Clear,0,2013-10-27 16:35:00
11:55 AM,61.2,32.0,33,30.16,10.0,Calm,Calm,-,N/A,,Clear,0,2013-10-27 16:55:00
12:15 PM,62.6,28.9,28,30.16,10.0,Calm,Calm,-,N/A,,Clear,0,2013-10-27 17:15:00
12:35 PM,64.2,30.0,28,30.15,10.0,WSW,3.5,-,N/A,,Clear,250,2013-10-27 17:35:00
12:55 PM,65.3,28.2,25,30.14,10.0,SW,4.6,-,N/A,,Clear,230,2013-10-27 17:55:00
1:15 PM,66.6,28.6,24,30.12,10.0,SW,4.6,-,N/A,,Clear,230,2013-10-27 18:15:00
1:35 PM,66.6,25.3,21,30.11,10.0,SW,6.9,-,N/A,,Clear,220,2013-10-27 18:35:00
1:55 PM,67.8,25.9,21,30.10,10.0,SSW,4.6,-,N/A,,Clear,200,2013-10-27 18:55:00
2:15 PM,68.5,26.6,21,30.08,10.0,SSW,8.1,-,N/A,,Clear,200,2013-10-27 19:15:00
2:35 PM,68.7,24.4,19,30.06,10.0,SSW,3.5,-,N/A,,Clear,210,2013-10-27 19:35:00
2:55 PM,69.6,23.4,18,30.05,10.0,South,4.6,-,N/A,,Clear,190,2013-10-27 19:55:00
3:15 PM,70.5,25.0,18,30.04,10.0,South,4.6,-,N/A,,Clear,180,2013-10-27 20:15:00
3:35 PM,71.1,26.8,19,30.03,10.0,SW,6.9,-,N/A,,Clear,220,2013-10-27 20:35:00
3:55 PM,71.2,27.9,20,30.02,10.0,SSW,5.8,-,N/A,,Clear,200,2013-10-27 20:55:00
4:15 PM,72.0,28.6,20,30.01,10.0,South,9.2,-,N/A,,Clear,170,2013-10-27 21:15:00
4:35 PM,72.1,29.3,20,30.00,10.0,SSE,6.9,-,N/A,,Clear,160,2013-10-27 21:35:00
4:55 PM,72.3,29.3,20,30.00,10.0,SSW,9.2,-,N/A,,Clear,210,2013-10-27 21:55:00
5:15 PM,72.7,29.7,20,30.00,10.0,South,6.9,17.3,N/A,,Clear,180,2013-10-27 22:15:00
5:35 PM,72.1,32.0,23,29.99,10.0,South,11.5,-,N/A,,Clear,190,2013-10-27 22:35:00
5:55 PM,71.6,32.7,24,29.99,10.0,South,11.5,-,N/A,,Clear,180,2013-10-27 22:55:00
6:15 PM,70.7,35.8,28,29.99,10.0,South,12.7,-,N/A,,Clear,170,2013-10-27 23:15:00
6:35 PM,68.9,37.0,31,29.99,10.0,South,12.7,-,N/A,,Clear,170,2013-10-27 23:35:00
6:55 PM,66.4,39.7,38,29.98,10.0,SSE,9.2,-,N/A,,Clear,160,2013-10-27 23:55:00
7:15 PM,63.1,41.4,45,29.98,10.0,SSE,8.1,-,N/A,,Clear,160,2013-10-28 00:15:00
7:35 PM,61.2,42.1,50,29.99,10.0,SSE,9.2,-,N/A,,Clear,150,2013-10-28 00:35:00
7:55 PM,61.0,43.3,52,29.99,10.0,SSE,9.2,-,N/A,,Clear,150,2013-10-28 00:55:00
8:15 PM,61.3,43.9,53,29.99,10.0,SSE,10.4,-,N/A,,Clear,150,2013-10-28 01:15:00
8:35 PM,60.3,44.8,57,29.99,10.0,SSE,10.4,-,N/A,,Clear,150,2013-10-28 01:35:00
8:55 PM,60.1,45.7,59,29.99,10.0,SSE,10.4,-,N/A,,Clear,150,2013-10-28 01:55:00
9:15 PM,59.5,46.4,62,29.99,10.0,SE,10.4,-,N/A,,Clear,140,2013-10-28 02:15:00
9:35 PM,58.8,46.6,64,29.99,10.0,SSE,9.2,-,N/A,,Clear,150,2013-10-28 02:35:00
9:55 PM,57.9,46.8,66,29.99,10.0,SSE,9.2,-,N/A,,Clear,150,2013-10-28 02:55:00
10:15 PM,58.1,47.7,68,30.00,10.0,SSE,11.5,-,N/A,,Clear,150,2013-10-28 03:15:00
10:35 PM,57.6,47.8,70,30.00,10.0,SE,11.5,-,N/A,,Clear,140,2013-10-28 03:35:00
10:55 PM,57.6,48.4,71,30.00,10.0,SSE,12.7,-,N/A,,Clear,150,2013-10-28 03:55:00
11:15 PM,57.4,48.7,73,30.00,10.0,SE,10.4,-,N/A,,Clear,140,2013-10-28 04:15:00
11:35 PM,56.3,49.1,77,30.01,10.0,SE,10.4,-,N/A,,Clear,140,2013-10-28 04:35:00
11:55 PM,55.8,49.6,80,30.00,10.0,SE,9.2,-,N/A,,Clear,140,2013-10-28 04:55:00